APJ728 RJBB-RJCC

Flight info

Callsign APJ728
Flight time N/A
Altitude 39000
Route KCC BASIN BENNY AKITA MRE Y13 SIRAO Y139 NAVER
Aircraft A20N/M-SDE2E3FGHIRWXY/LB1

Departure

Time N/A
Airport Kansai International Airport (RJBB)

Arrival

Time 2026-02-20 23:34
Airport New Chitose Airport (RJCC)
Time Latitude Longitude Altitude Speed Heading
2026-02-20 22:37 37.74616 138.66548 39154 ft 477 kts 23°
2026-02-20 22:37 37.80385 138.70781 39154 ft 477 kts 23°
2026-02-20 22:38 37.86089 138.74973 39158 ft 477 kts 23°
2026-02-20 22:38 37.91832 138.79202 39159 ft 478 kts 24°
2026-02-20 22:39 37.97581 138.83443 39160 ft 478 kts 24°
2026-02-20 22:39 38.03328 138.87689 39162 ft 478 kts 24°
2026-02-20 22:40 38.09076 138.91941 39165 ft 478 kts 24°
2026-02-20 22:40 38.14731 138.96365 39160 ft 482 kts 27°
2026-02-20 22:41 38.20349 139.01019 39165 ft 482 kts 26°
2026-02-20 22:41 38.25988 139.05628 39164 ft 482 kts 26°
2026-02-20 22:42 38.34464 139.12541 39169 ft 482 kts 26°
2026-02-20 22:42 38.40100 139.17153 39161 ft 480 kts 26°
2026-02-20 22:43 38.45681 139.21730 39160 ft 480 kts 26°
2026-02-20 22:43 38.51302 139.26348 39158 ft 480 kts 26°
2026-02-20 22:44 38.56918 139.30974 39160 ft 480 kts 26°
2026-02-20 22:44 38.62541 139.35616 39160 ft 480 kts 26°
2026-02-20 22:45 38.68156 139.40264 39155 ft 480 kts 26°
2026-02-20 22:45 38.73734 139.44889 39143 ft 480 kts 26°
2026-02-20 22:46 38.79336 139.49544 39139 ft 479 kts 26°
2026-02-20 22:46 38.84937 139.54206 39137 ft 479 kts 26°
2026-02-20 22:47 38.90527 139.58869 39134 ft 479 kts 26°
2026-02-20 22:47 38.96115 139.63539 39138 ft 479 kts 26°
2026-02-20 22:48 38.98909 139.65877 39009 ft 477 kts 26°
2026-02-20 22:48 39.01664 139.68131 39131 ft 462 kts 23°
2026-02-20 22:48 39.07324 139.71684 39145 ft 451 kts 15°
2026-02-20 22:49 39.13114 139.74764 39146 ft 453 kts 15°
2026-02-20 22:49 39.18932 139.77879 39154 ft 452 kts 15°
2026-02-20 22:50 39.24741 139.81006 39152 ft 452 kts 15°
2026-02-20 22:50 39.30544 139.84139 39152 ft 452 kts 15°
2026-02-20 22:51 39.36327 139.87267 39152 ft 452 kts 15°
2026-02-20 22:51 39.42132 139.90415 39148 ft 452 kts 15°
2026-02-20 22:52 39.47943 139.93572 39146 ft 452 kts 15°
2026-02-20 22:52 39.53753 139.96733 39142 ft 452 kts 15°
2026-02-20 22:53 39.59521 139.99878 39143 ft 452 kts 16°
2026-02-20 22:53 39.65330 140.03052 39140 ft 452 kts 16°
2026-02-20 22:54 39.71130 140.06226 39138 ft 452 kts 16°
2026-02-20 22:54 39.76877 140.09628 39142 ft 455 kts 19°
2026-02-20 22:55 39.82544 140.13188 39148 ft 455 kts 19°
2026-02-20 22:55 39.88259 140.16757 39153 ft 455 kts 19°
2026-02-20 22:56 39.93980 140.20309 39161 ft 455 kts 19°
2026-02-20 22:56 39.99703 140.23863 39156 ft 454 kts 19°
2026-02-20 22:57 40.05391 140.27400 39155 ft 454 kts 19°
2026-02-20 22:57 40.11066 140.30936 39155 ft 454 kts 19°
2026-02-20 22:58 40.16764 140.34492 39156 ft 454 kts 19°
2026-02-20 22:58 40.22451 140.38049 39151 ft 453 kts 19°
2026-02-20 22:59 40.28148 140.41618 39145 ft 453 kts 19°
2026-02-20 22:59 40.33780 140.45153 39145 ft 452 kts 19°
2026-02-20 23:00 40.39452 140.48721 39140 ft 452 kts 19°
2026-02-20 23:00 40.45125 140.52294 39120 ft 451 kts 19°
2026-02-20 23:01 40.50783 140.55864 39092 ft 451 kts 19°
2026-02-20 23:01 40.56438 140.59438 39068 ft 451 kts 20°
2026-02-20 23:02 40.62087 140.63017 39052 ft 451 kts 20°
2026-02-20 23:02 40.67719 140.66592 39045 ft 452 kts 20°
2026-02-20 23:03 40.73386 140.70177 39049 ft 451 kts 18°
2026-02-20 23:03 40.79195 140.73163 39053 ft 448 kts 14°
2026-02-20 23:04 40.85034 140.76020 39066 ft 448 kts 14°
2026-02-20 23:04 40.90877 140.78876 39082 ft 448 kts 14°
2026-02-20 23:05 40.96717 140.81757 39096 ft 448 kts 14°
2026-02-20 23:05 41.02554 140.84649 39108 ft 448 kts 14°
2026-02-20 23:06 41.08388 140.87544 39111 ft 447 kts 14°
2026-02-20 23:06 41.14215 140.90440 39102 ft 447 kts 14°
2026-02-20 23:07 41.19991 140.93317 39105 ft 447 kts 14°
2026-02-20 23:07 41.25816 140.96224 39099 ft 447 kts 15°
2026-02-20 23:08 41.31632 140.99132 39098 ft 446 kts 14°
2026-02-20 23:08 41.37454 141.02002 39097 ft 446 kts 14°
2026-02-20 23:09 41.43274 141.04858 39096 ft 446 kts 14°
2026-02-20 23:09 41.49093 141.07723 39087 ft 446 kts 14°
2026-02-20 23:10 41.54902 141.10592 39078 ft 446 kts 14°
2026-02-20 23:10 41.60726 141.13476 39077 ft 446 kts 14°
2026-02-20 23:11 41.66533 141.16356 38898 ft 444 kts 14°
2026-02-20 23:11 41.69430 141.17796 38323 ft 444 kts 15°
2026-02-20 23:11 41.72333 141.19250 37528 ft 447 kts 15°
2026-02-20 23:12 41.75251 141.20722 36653 ft 450 kts 15°
2026-02-20 23:12 41.78193 141.22210 35793 ft 453 kts 15°
2026-02-20 23:12 41.81101 141.23684 35047 ft 453 kts 16°
2026-02-20 23:12 41.84044 141.25176 34337 ft 451 kts 16°
2026-02-20 23:13 41.86976 141.26665 33524 ft 450 kts 16°
2026-02-20 23:13 41.89905 141.28152 32597 ft 451 kts 16°
2026-02-20 23:13 41.92836 141.29663 31849 ft 449 kts 19°
2026-02-20 23:13 41.95604 141.31480 31737 ft 439 kts 25°
2026-02-20 23:14 41.98172 141.33730 31630 ft 446 kts 33°
2026-02-20 23:14 42.00563 141.36468 31518 ft 455 kts 40°
2026-02-20 23:14 42.02833 141.39424 31408 ft 454 kts 40°
2026-02-20 23:14 42.05088 141.42379 31288 ft 453 kts 40°
2026-02-20 23:15 42.07350 141.45330 31148 ft 452 kts 40°
2026-02-20 23:15 42.09610 141.48261 30621 ft 451 kts 40°
2026-02-20 23:15 42.11884 141.51196 29708 ft 454 kts 39°
2026-02-20 23:15 42.14297 141.53962 28526 ft 456 kts 33°
2026-02-20 23:16 42.16845 141.56508 27650 ft 455 kts 32°
2026-02-20 23:16 42.19385 141.59030 26934 ft 450 kts 32°
2026-02-20 23:16 42.21891 141.61525 26238 ft 446 kts 32°
2026-02-20 23:16 42.24374 141.64009 25598 ft 441 kts 33°
2026-02-20 23:17 42.26785 141.66437 25475 ft 424 kts 33°
2026-02-20 23:17 42.29098 141.68775 25371 ft 410 kts 32°
2026-02-20 23:17 42.31386 141.71085 25271 ft 414 kts 32°
2026-02-20 23:17 42.33702 141.73419 25166 ft 415 kts 33°
2026-02-20 23:18 42.35992 141.75732 25078 ft 413 kts 33°
2026-02-20 23:18 42.38292 141.78059 25070 ft 413 kts 33°
2026-02-20 23:18 42.40592 141.80388 25074 ft 413 kts 33°
2026-02-20 23:18 42.42888 141.82717 25073 ft 413 kts 33°
2026-02-20 23:19 42.45185 141.85049 25075 ft 412 kts 33°
2026-02-20 23:19 42.47477 141.87378 25047 ft 411 kts 33°
2026-02-20 23:19 42.49750 141.89693 24534 ft 407 kts 33°
2026-02-20 23:19 42.52088 141.92055 23731 ft 429 kts 31°
2026-02-20 23:20 42.54689 141.93994 23130 ft 425 kts 18°
2026-02-20 23:20 42.57519 141.95045 22321 ft 417 kts
2026-02-20 23:20 42.60357 141.95108 21518 ft 404 kts 350°
2026-02-20 23:20 42.63101 141.94466 20496 ft 398 kts 344°
2026-02-20 23:21 42.65795 141.93627 19468 ft 396 kts 343°
2026-02-20 23:21 42.68484 141.92815 18668 ft 396 kts 345°
2026-02-20 23:21 42.71180 141.92089 18019 ft 393 kts 346°
2026-02-20 23:21 42.73777 141.91468 17734 ft 372 kts 347°
2026-02-20 23:22 42.76145 141.90952 17419 ft 318 kts 347°
2026-02-20 23:22 42.78318 141.90491 16562 ft 305 kts 347°
2026-02-20 23:22 42.80242 141.90098 16185 ft 257 kts 347°
2026-02-20 23:22 42.81888 141.89769 15857 ft 225 kts 346°
2026-02-20 23:23 42.83476 141.89428 14943 ft 244 kts 346°
2026-02-20 23:23 42.85208 141.89031 14230 ft 260 kts 346°
2026-02-20 23:23 42.87034 141.88617 13554 ft 271 kts 347°
2026-02-20 23:23 42.88928 141.88194 12869 ft 281 kts 347°
2026-02-20 23:24 42.90887 141.87761 12190 ft 289 kts 347°
2026-02-20 23:24 42.92899 141.87319 11581 ft 295 kts 347°
2026-02-20 23:24 42.94956 141.86868 10872 ft 304 kts 348°
2026-02-20 23:24 42.97073 141.86401 10117 ft 313 kts 348°
2026-02-20 23:25 42.98513 141.86083 9558 ft 319 kts 348°
2026-02-20 23:25 43.00741 141.85592 8625 ft 329 kts 347°
2026-02-20 23:25 43.03039 141.85080 7653 ft 339 kts 345°
2026-02-20 23:25 43.05234 141.83976 6630 ft 335 kts 324°
2026-02-20 23:26 43.06827 141.81993 6039 ft 274 kts 303°
2026-02-20 23:26 43.07459 141.79910 5531 ft 210 kts 274°
2026-02-20 23:26 43.06839 141.76763 4983 ft 150 kts 243°
2026-02-20 23:27 43.06314 141.75549 4502 ft 148 kts 237°
2026-02-20 23:27 43.05689 141.74420 3972 ft 150 kts 230°
2026-02-20 23:27 43.04997 141.73339 3441 ft 152 kts 230°
2026-02-20 23:27 43.04303 141.72192 3076 ft 171 kts 230°
2026-02-20 23:28 43.03472 141.70790 3307 ft 203 kts 230°
2026-02-20 23:28 43.02510 141.69171 3582 ft 233 kts 231°
2026-02-20 23:28 43.01474 141.67435 3688 ft 237 kts 231°
2026-02-20 23:28 43.00274 141.65901 3797 ft 239 kts 210°
2026-02-20 23:29 42.98696 141.65397 3891 ft 232 kts 178°
2026-02-20 23:29 42.97133 141.65831 3726 ft 229 kts 170°
2026-02-20 23:29 42.95582 141.66224 3458 ft 221 kts 182°
2026-02-20 23:29 42.94068 141.66198 3245 ft 216 kts 183°
2026-02-20 23:30 42.92574 141.66275 2960 ft 215 kts 178°
2026-02-20 23:30 42.91118 141.66506 2721 ft 201 kts 174°
2026-02-20 23:30 42.89841 141.66760 2436 ft 171 kts 175°
2026-02-20 23:30 42.88738 141.66961 2194 ft 151 kts 174°
2026-02-20 23:31 42.87741 141.67147 1983 ft 137 kts 172°
2026-02-20 23:31 42.86879 141.67581 1802 ft 127 kts 162°
2026-02-20 23:31 42.86049 141.67799 1625 ft 121 kts 174°
2026-02-20 23:31 42.85214 141.67964 1459 ft 121 kts 173°
2026-02-20 23:32 42.84440 141.68110 1293 ft 123 kts 173°
2026-02-20 23:32 42.83588 141.68268 1107 ft 125 kts 172°
2026-02-20 23:32 42.82731 141.68428 916 ft 124 kts 172°
2026-02-20 23:32 42.81891 141.68584 742 ft 123 kts 171°
2026-02-20 23:33 42.81011 141.68747 572 ft 127 kts 171°
2026-02-20 23:33 42.80152 141.68907 393 ft 125 kts 171°
2026-02-20 23:33 42.79289 141.69069 228 ft 125 kts 172°
2026-02-20 23:33 42.78422 141.69213 95 ft 123 kts 171°
2026-02-20 23:34 42.77673 141.69352 69 ft 85 kts 173°
2026-02-20 23:34 42.77290 141.69441 64 ft 26 kts 166°
2026-02-20 23:34 42.77248 141.69454 68 ft 3 kts 169°
2026-02-20 23:34 42.77193 141.69466 70 ft 13 kts 174°
2026-02-20 23:35 42.77064 141.69485 67 ft 23 kts 173°
2026-02-20 23:35 42.76874 141.69505 66 ft 31 kts 182°
2026-02-20 23:35 42.76654 141.69405 65 ft 35 kts 208°
2026-02-20 23:35 42.76619 141.69179 73 ft 20 kts 266°
2026-02-20 23:36 42.76576 141.69077 71 ft 10 kts 267°
2026-02-20 23:36 42.76615 141.68999 72 ft 12 kts 324°
2026-02-20 23:36 42.76702 141.68969 67 ft 14 kts 355°
2026-02-20 23:36 42.76811 141.68952 67 ft 17 kts 353°
2026-02-20 23:37 42.76936 141.68927 71 ft 19 kts 349°
2026-02-20 23:37 42.77077 141.68895 75 ft 22 kts 352°
2026-02-20 23:37 42.77233 141.68866 83 ft 24 kts 353°
2026-02-20 23:37 42.77402 141.68834 84 ft 25 kts 352°
2026-02-20 23:38 42.77534 141.68695 82 ft 26 kts 297°
2026-02-20 23:38 42.77690 141.68601 84 ft 26 kts 352°
2026-02-20 23:38 42.77866 141.68567 85 ft 21 kts 352°
2026-02-20 23:38 42.77949 141.68552 83 ft 13 kts 352°
2026-02-20 23:39 42.78054 141.68532 87 ft 17 kts 352°
2026-02-20 23:39 42.78126 141.68498 87 ft 1 kts 331°
2026-02-20 23:39 42.78147 141.68482 88 ft 6 kts 330°
2026-02-20 23:39 42.78197 141.68437 88 ft 11 kts 322°
2026-02-20 23:40 42.78260 141.68358 86 ft 14 kts 311°
2026-02-20 23:40 42.78312 141.68251 84 ft 13 kts 296°
2026-02-20 23:40 42.78340 141.68180 86 ft 9 kts 304°
2026-02-20 23:40 42.78375 141.68099 87 ft 11 kts 272°
2026-02-20 23:41 42.78391 141.68024 86 ft 9 kts 317°
2026-02-20 23:41 42.78452 141.67991 86 ft 5 kts 342°
2026-02-20 23:41 42.78462 141.67987 84 ft 1 kts 343°
2026-02-20 23:41 42.78464 141.67986 86 ft 0 kts 343°
2026-02-20 23:43 42.78464 141.67987 86 ft 0 kts 343°
2026-02-20 23:47 42.78464 141.67986 86 ft 0 kts 343°